DT_LEITURA;HR_LEITURA;MED-PressaoAtm[hPa];VAL-TempExt[oC];VAL-UmidExt[%UR];VAL-TempInt[oC];VAL-UmidInt[%UR];Dir-Vento[grau];Vel-Vento[m/s];Precipitação[mm/h]
23/08/2026;00:00:00;1013,2;-34,2;0;29,0;73;326;0,6;0,0
23/08/2026;00:05:00;1013,2;-34,2;0;29,0;73;288;0,4;0,0
23/08/2026;00:10:00;1013,1;-34,3;0;29,0;73;168;0,4;0,0
23/08/2026;00:15:00;1013,0;-34,3;0;28,9;73;128;0,6;0,0
23/08/2026;00:20:00;1012,9;-34,4;0;28,9;73;352;0,5;0,0
23/08/2026;00:25:00;1012,8;-34,4;0;28,8;73;104;0,4;0,0
23/08/2026;00:30:00;1012,8;-34,5;0;28,8;73;63;0,6;0,0
23/08/2026;00:35:00;1012,7;-34,5;0;28,7;74;325;0,4;0,0
23/08/2026;00:40:00;1012,6;-34,6;0;28,7;74;307;0,6;0,0
23/08/2026;00:45:00;1012,5;-34,7;0;28,6;74;334;0,5;0,0
23/08/2026;00:50:00;1012,5;-34,7;0;28,6;74;319;0,5;0,0
23/08/2026;00:55:00;1012,5;-34,8;0;28,6;74;6;0,6;0,0
23/08/2026;01:00:00;1012,4;-34,9;0;28,5;74;269;0,5;0,0
23/08/2026;01:05:00;1012,4;-34,9;0;28,5;75;11;0,7;0,0
23/08/2026;01:10:00;1012,4;-34,9;0;28,5;75;255;0,5;0,0
23/08/2026;01:15:00;1012,4;-35,0;0;28,5;75;349;0,6;0,0
23/08/2026;01:20:00;1012,4;-35,0;0;28,4;75;339;0,5;0,0
23/08/2026;01:25:00;1012,3;-35,1;0;28,4;75;276;0,6;0,0
23/08/2026;01:30:00;1012,3;-35,1;0;28,3;75;322;0,5;0,0
23/08/2026;01:35:00;1012,2;-35,2;0;28,2;75;15;0,6;0,0
23/08/2026;01:40:00;1012,2;-35,3;0;28,2;76;37;0,5;0,0
23/08/2026;01:45:00;1012,1;-35,3;0;28,1;76;350;0,5;0,0
23/08/2026;01:50:00;1012,1;-35,4;0;28,1;76;9;0,6;0,0
23/08/2026;01:55:00;1012,0;-35,4;0;28,0;76;20;0,5;0,0
23/08/2026;02:00:00;1012,0;-35,4;0;28,0;77;349;0,5;0,0
23/08/2026;02:05:00;1012,0;-35,5;0;27,9;77;324;0,5;0,0
23/08/2026;02:10:00;1012,0;-35,5;0;27,9;77;1;0,6;0,0
23/08/2026;02:15:00;1011,9;-35,6;0;27,8;77;351;0,6;0,0
23/08/2026;02:20:00;1011,9;-35,6;0;27,8;77;35;0,6;0,0
23/08/2026;02:25:00;1011,9;-35,6;0;27,8;77;7;0,5;0,0
23/08/2026;02:30:00;1011,9;-35,7;0;27,7;78;48;0,4;0,0
23/08/2026;02:35:00;1011,9;-35,7;0;27,7;78;37;0,5;0,0
23/08/2026;02:40:00;1011,8;-35,8;0;27,7;78;12;0,5;0,0
23/08/2026;02:45:00;1011,8;-35,8;0;27,6;78;34;0,5;0,0
23/08/2026;02:50:00;1011,7;-35,8;0;27,6;78;72;0,4;0,0
23/08/2026;02:55:00;1011,7;-35,8;0;27,5;78;14;0,5;0,0
23/08/2026;03:00:00;1011,7;-35,9;0;27,5;78;350;0,4;0,0
23/08/2026;03:05:00;1011,7;-35,9;0;27,4;79;28;0,3;0,0
23/08/2026;03:10:00;1011,6;-35,9;0;27,4;79;12;0,5;0,0
23/08/2026;03:15:00;1011,6;-35,9;0;27,4;79;20;0,7;0,0
23/08/2026;03:20:00;1011,6;-36,0;0;27,3;79;43;0,4;0,0
23/08/2026;03:25:00;1011,6;-36,0;0;27,3;79;5;0,4;0,0
23/08/2026;03:30:00;1011,5;-36,0;0;27,3;79;4;0,7;0,0
23/08/2026;03:35:00;1011,5;-36,0;0;27,2;79;317;0,5;0,0
23/08/2026;03:40:00;1011,5;-36,0;0;27,2;80;62;0,5;0,0
23/08/2026;03:45:00;1011,5;-36,1;0;27,2;80;29;0,5;0,0
23/08/2026;03:50:00;1011,5;-36,1;0;27,2;80;62;0,4;0,0
23/08/2026;03:55:00;1011,5;-36,1;0;27,2;80;40;0,5;0,0
23/08/2026;04:00:00;1011,5;-36,1;0;27,1;80;347;0,5;0,0
23/08/2026;04:05:00;1011,4;-36,1;0;27,1;80;12;0,7;0,0
23/08/2026;04:10:00;1011,4;-36,1;0;27,1;80;346;0,5;0,0
23/08/2026;04:15:00;1011,4;-36,1;0;27,1;80;7;0,5;0,0
23/08/2026;04:20:00;1011,4;-36,1;0;27,1;80;15;0,6;0,0
23/08/2026;04:25:00;1011,4;-36,1;0;27,1;80;12;0,6;0,0
23/08/2026;04:30:00;1011,5;-36,2;0;27,1;80;17;0,4;0,0
23/08/2026;04:35:00;1011,5;-36,2;0;27,1;80;351;0,4;0,0
23/08/2026;04:40:00;1011,5;-36,2;0;27,1;80;5;0,5;0,0
23/08/2026;04:45:00;1011,5;-36,2;0;27,1;80;19;0,6;0,0
23/08/2026;04:50:00;1011,5;-36,2;0;27,1;80;17;0,5;0,0
23/08/2026;04:55:00;1011,6;-36,2;0;27,1;80;10;0,5;0,0
23/08/2026;05:00:00;1011,6;-36,2;0;27,1;80;7;0,5;0,0
23/08/2026;05:05:00;1011,7;-36,2;0;27,1;79;352;0,4;0,0
23/08/2026;05:10:00;1011,7;-36,2;0;27,2;79;20;0,5;0,0
23/08/2026;05:15:00;1011,7;-36,2;0;27,2;79;9;0,4;0,0
23/08/2026;05:20:00;1011,8;-36,2;0;27,2;79;2;0,4;0,0
23/08/2026;05:25:00;1011,8;-36,2;0;27,2;79;34;0,3;0,0
23/08/2026;05:30:00;1011,8;-36,2;0;27,2;79;21;0,4;0,0
23/08/2026;05:35:00;1011,9;-36,2;0;27,2;79;69;0,4;0,0
23/08/2026;05:40:00;1011,9;-36,2;0;27,2;79;43;0,3;0,0
23/08/2026;05:45:00;1011,9;-36,2;0;27,1;79;113;0,2;0,0
23/08/2026;05:50:00;1011,9;-36,2;0;27,1;79;4;0,4;0,0
23/08/2026;05:55:00;1012,0;-36,2;0;27,1;79;12;0,6;0,0
23/08/2026;06:00:00;1012,0;-36,3;0;27,0;80;8;0,5;0,0
23/08/2026;06:05:00;1012,1;-36,3;0;27,0;80;22;0,4;0,0
23/08/2026;06:10:00;1012,2;-36,3;0;26,9;80;354;0,4;0,0
23/08/2026;06:15:00;1012,2;-36,3;0;26,9;80;243;0,4;0,0
23/08/2026;06:20:00;1012,2;-36,3;0;26,9;80;11;0,4;0,0
23/08/2026;06:25:00;1012,2;-36,3;0;26,9;80;10;0,5;0,0
23/08/2026;06:30:00;1012,2;-36,3;0;26,9;80;18;0,4;0,0
23/08/2026;06:35:00;1012,2;-36,3;0;26,9;80;350;0,4;0,0
23/08/2026;06:40:00;1012,2;-36,3;0;26,9;80;360;0,5;0,0
23/08/2026;06:45:00;1012,3;-36,3;0;26,9;80;40;0,5;0,0
23/08/2026;06:50:00;1012,3;-36,3;0;26,9;80;10;0,5;0,0
23/08/2026;06:55:00;1012,4;-36,3;0;26,9;80;7;0,5;0,0
23/08/2026;07:00:00;1012,5;-36,3;0;26,9;80;355;0,5;0,0
23/08/2026;07:05:00;1012,5;-36,3;0;27,0;80;7;0,6;0,0
23/08/2026;07:10:00;1012,6;-36,3;0;27,0;80;333;0,5;0,0
23/08/2026;07:15:00;1012,7;-36,3;0;27,1;80;355;0,5;0,0
23/08/2026;07:20:00;1012,8;-36,3;0;27,2;79;1;0,8;0,0
23/08/2026;07:25:00;1012,9;-36,3;0;27,2;79;359;0,5;0,0
23/08/2026;07:30:00;1013,0;-36,3;0;27,2;79;287;0,4;0,0
23/08/2026;07:35:00;1013,1;-36,3;0;27,3;79;5;0,5;0,0
23/08/2026;07:40:00;1013,2;-36,3;0;27,4;79;317;0,5;0,0
23/08/2026;07:45:00;1013,3;-36,3;0;27,5;79;305;0,4;0,0
23/08/2026;07:50:00;1013,4;-36,3;0;27,5;78;343;0,5;0,0
23/08/2026;07:55:00;1013,4;-36,3;0;27,6;78;26;0,5;0,0
23/08/2026;08:00:00;1013,5;-36,3;0;27,7;78;296;0,4;0,0
23/08/2026;08:05:00;1013,6;-36,3;0;27,8;78;269;0,4;0,0
23/08/2026;08:10:00;1013,6;-36,3;0;27,9;78;306;0,4;0,0
23/08/2026;08:15:00;1013,7;-36,2;0;28,0;78;7;0,5;0,0
23/08/2026;08:20:00;1013,8;-36,2;0;28,2;77;276;0,5;0,0
23/08/2026;08:25:00;1013,9;-36,2;0;28,3;77;26;0,4;0,0
23/08/2026;08:30:00;1014,0;-36,2;0;28,4;76;30;0,5;0,0
23/08/2026;08:35:00;1014,1;-36,2;0;28,6;76;355;0,5;0,0
23/08/2026;08:40:00;1014,1;-36,1;0;28,7;75;15;0,4;0,0
23/08/2026;08:45:00;1014,1;-36,1;0;28,8;75;118;0,4;0,0
23/08/2026;08:50:00;1014,1;-36,0;0;29,0;75;80;0,6;0,0
23/08/2026;08:55:00;1014,1;-35,9;0;29,2;74;149;0,7;0,0
23/08/2026;09:00:00;1014,1;-35,7;0;29,4;74;70;0,5;0,0
23/08/2026;09:05:00;1014,2;-35,4;0;29,7;73;152;0,9;0,0
23/08/2026;09:10:00;1014,2;-35,0;0;29,9;72;164;1,3;0,0
23/08/2026;09:15:00;1014,2;-34,5;0;30,1;70;131;1,8;0,0
23/08/2026;09:20:00;1014,2;-33,7;0;30,3;68;128;1,6;0,0
23/08/2026;09:25:00;1014,2;-32,6;0;30,6;67;117;1,7;0,0
23/08/2026;09:30:00;1014,2;-30,6;0;31,1;65;128;2,2;0,0
23/08/2026;09:35:00;1014,1;-27,1;0;31,6;63;133;1,5;0,0
23/08/2026;09:40:00;1014,1;-25,5;0;31,8;62;151;1,3;0,0
23/08/2026;09:45:00;1014,2;-25,2;0;31,9;60;140;1,8;0,0
23/08/2026;09:50:00;1014,2;-24,3;0;32,0;60;158;1,5;0,0
23/08/2026;09:55:00;1014,2;-23,8;0;32,2;59;146;1,7;0,0
23/08/2026;10:00:00;1014,2;-23,6;0;32,6;58;134;2,1;0,0
23/08/2026;10:05:00;1014,2;-22,5;0;33,0;57;144;1,8;0,0
23/08/2026;10:10:00;1014,1;-22,2;0;33,0;56;162;1,9;0,0
23/08/2026;10:15:00;1014,1;-22,4;0;33,1;56;161;1,4;0,0
23/08/2026;10:20:00;1014,2;-21,9;0;33,3;55;149;2,0;0,0
23/08/2026;10:25:00;1014,1;-21,9;0;33,5;53;138;2,2;0,0
23/08/2026;10:30:00;1014,1;-22,1;0;33,7;53;136;2,2;0,0
23/08/2026;10:35:00;1014,1;-21,9;0;33,9;52;156;1,5;0,0
23/08/2026;10:40:00;1014,1;-22,0;0;34,0;53;142;1,8;0,0
23/08/2026;10:45:00;1014,1;-22,7;0;34,3;52;139;2,1;0,0
23/08/2026;10:50:00;1014,0;-22,5;0;34,4;52;159;2,0;0,0
23/08/2026;10:55:00;1014,0;-22,8;0;34,2;53;136;2,2;0,0
23/08/2026;11:00:00;1013,9;-23,1;0;34,2;53;151;1,6;0,0
23/08/2026;11:05:00;1013,9;-23,1;0;34,4;52;161;1,5;0,0
23/08/2026;11:10:00;1013,9;-25,9;0;34,7;51;144;1,7;0,0
23/08/2026;11:15:00;1013,9;-23,4;0;34,9;51;133;1,9;0,0
23/08/2026;11:20:00;1013,9;-23,3;0;35,1;51;152;1,7;0,0
23/08/2026;11:25:00;1013,8;-23,6;0;35,3;50;141;1,8;0,0
23/08/2026;11:30:00;1013,8;-24,3;0;35,2;49;131;2,0;0,0
23/08/2026;11:35:00;1013,7;-24,3;0;34,9;50;126;1,7;0,0
23/08/2026;11:40:00;1013,6;-24,6;0;34,9;51;142;1,6;0,0
23/08/2026;11:45:00;1013,5;-25,2;0;35,1;51;138;1,6;0,0
23/08/2026;11:50:00;1013,5;-25,6;0;35,2;50;130;1,6;0,0
23/08/2026;11:55:00;1013,4;-25,9;0;35,1;50;139;1,6;0,0
23/08/2026;12:00:00;1013,4;-26,0;0;35,1;50;138;1,6;0,0
23/08/2026;12:05:00;1013,3;-25,4;0;35,2;50;130;1,5;0,0
23/08/2026;12:10:00;1013,3;-25,6;0;35,1;51;137;1,2;0,0
23/08/2026;12:15:00;1013,3;-26,4;0;35,3;50;143;1,1;0,0
23/08/2026;12:20:00;1013,2;-26,0;0;35,4;51;139;1,2;0,0
23/08/2026;12:25:00;1013,2;-25,9;0;35,6;50;134;1,2;0,0
23/08/2026;12:30:00;1013,1;-26,0;0;35,8;50;139;1,2;0,0
23/08/2026;12:35:00;1013,0;-25,9;0;36,1;48;130;1,4;0,0
23/08/2026;12:40:00;1012,9;-26,4;0;36,5;48;142;1,2;0,0
23/08/2026;12:45:00;1012,8;-27,0;0;36,8;47;139;1,4;0,0
23/08/2026;12:50:00;1012,8;-26,8;0;37,1;45;131;1,0;0,0
23/08/2026;12:55:00;1012,7;-27,1;0;37,2;46;138;1,2;0,0
23/08/2026;13:00:00;1012,6;-27,0;0;37,5;45;133;1,4;0,0
23/08/2026;13:05:00;1012,5;-26,7;0;37,7;44;150;0,9;0,0
23/08/2026;13:10:00;1012,4;-26,5;0;37,5;45;131;1,0;0,0
23/08/2026;13:15:00;1012,3;-26,9;0;37,4;45;128;1,3;0,0
23/08/2026;13:20:00;1012,2;-26,4;0;37,3;45;145;1,1;0,0
23/08/2026;13:25:00;1012,2;-26,6;0;37,6;45;135;1,1;0,0
23/08/2026;13:30:00;1012,1;-27,1;0;38,0;44;143;1,1;0,0
23/08/2026;13:35:00;1012,0;-27,0;0;38,4;43;134;1,1;0,0
23/08/2026;13:40:00;1011,9;-27,1;0;38,7;42;141;1,0;0,0
23/08/2026;13:45:00;1011,9;-27,7;0;39,1;41;157;0,8;0,0
23/08/2026;13:50:00;1011,8;-27,1;0;39,3;40;128;1,2;0,0
23/08/2026;13:55:00;1011,7;-27,7;0;39,6;40;116;1,0;0,0
23/08/2026;14:00:00;1011,5;-27,9;0;39,8;39;165;0,9;0,0
23/08/2026;14:05:00;1011,5;-28,2;0;40,0;39;133;1,0;0,0
23/08/2026;14:10:00;1011,4;-28,4;0;40,2;38;136;0,9;0,0
23/08/2026;14:15:00;1011,4;-28,6;0;40,3;37;142;1,1;0,0
23/08/2026;14:20:00;1011,3;-26,6;0;40,4;38;158;0,9;0,0
23/08/2026;14:25:00;1011,2;-26,3;0;40,5;37;135;1,0;0,0
23/08/2026;14:30:00;1011,2;-26,7;0;40,6;37;140;1,2;0,0
23/08/2026;14:35:00;1011,1;-26,4;0;40,7;37;156;0,9;0,0
23/08/2026;14:40:00;1011,1;-26,5;0;40,8;37;145;0,9;0,0
23/08/2026;14:45:00;1011,1;-26,9;0;41,0;37;129;1,1;0,0
23/08/2026;14:50:00;1011,0;-26,8;0;41,2;35;136;0,9;0,0
23/08/2026;14:55:00;1011,0;-26,9;0;41,4;35;142;0,8;0,0
23/08/2026;15:00:00;1010,9;-27,4;0;41,5;35;150;0,9;0,0
23/08/2026;15:05:00;1010,9;-27,1;0;41,5;35;162;0,8;0,0
23/08/2026;15:10:00;1010,8;-27,1;0;41,6;35;158;0,9;0,0
23/08/2026;15:15:00;1010,8;-27,5;0;41,6;34;135;0,9;0,0
23/08/2026;15:20:00;1010,8;-27,2;0;41,6;34;138;0,9;0,0
23/08/2026;15:25:00;1010,7;-27,2;0;41,6;34;153;0,7;0,0
23/08/2026;15:30:00;1010,7;-27,4;0;41,7;34;133;0,9;0,0
23/08/2026;15:35:00;1010,7;-27,1;0;41,7;34;139;0,8;0,0
23/08/2026;15:40:00;1010,7;-27,1;0;41,7;34;150;0,8;0,0
23/08/2026;15:45:00;1010,6;-27,6;0;41,8;33;135;0,9;0,0
23/08/2026;15:50:00;1010,6;-27,4;0;41,8;33;130;0,9;0,0
23/08/2026;15:55:00;1010,5;-27,5;0;41,8;33;141;1,1;0,0
23/08/2026;16:00:00;1010,5;-28,0;0;41,7;33;122;0,7;0,0
23/08/2026;16:05:00;1010,4;-27,5;0;41,5;34;139;0,8;0,0
23/08/2026;16:10:00;1010,4;-27,5;0;41,4;34;148;0,7;0,0
23/08/2026;16:15:00;1010,4;-27,9;0;41,2;35;142;0,9;0,0
23/08/2026;16:20:00;1010,4;-27,7;0;40,8;36;143;0,7;0,0
23/08/2026;16:25:00;1010,4;-28,0;0;40,1;38;151;0,8;0,0
23/08/2026;16:30:00;1010,4;-28,2;0;39,3;39;137;0,9;0,0
23/08/2026;16:35:00;1010,4;-27,9;0;38,6;41;127;1,0;0,0
23/08/2026;16:40:00;1010,4;-27,7;0;38,1;42;142;0,8;0,0
23/08/2026;16:45:00;1010,4;-28,0;0;37,6;43;155;0,8;0,0
23/08/2026;16:50:00;1010,4;-27,7;0;37,2;44;133;0,9;0,0
23/08/2026;16:55:00;1010,4;-27,7;0;36,8;45;130;0,9;0,0
23/08/2026;17:00:00;1010,4;-28,0;0;36,5;46;127;0,9;0,0
23/08/2026;17:05:00;1010,4;-28,3;0;36,2;47;137;1,0;0,0
23/08/2026;17:10:00;1010,4;-28,6;0;36,0;48;139;0,8;0,0
23/08/2026;17:15:00;1010,5;-28,8;0;35,8;49;135;0,9;0,0
23/08/2026;17:20:00;1010,5;-28,4;0;35,6;48;121;0,9;0,0
23/08/2026;17:25:00;1010,6;-28,4;0;35,1;56;126;0,9;0,0
23/08/2026;17:30:00;1010,6;-28,9;0;33,8;68;137;0,9;0,0
23/08/2026;17:35:00;1010,7;-29,4;0;32,8;73;124;0,8;0,0
23/08/2026;17:40:00;1010,8;-30,0;0;32,1;72;127;1,0;0,0
23/08/2026;17:45:00;1010,8;-30,5;0;31,6;72;129;1,1;0,0
23/08/2026;17:50:00;1010,9;-30,3;0;31,5;71;123;1,0;0,0
23/08/2026;17:55:00;1011,0;-30,2;0;31,5;70;126;1,3;0,0
23/08/2026;18:00:00;1011,0;-30,6;0;31,6;67;127;1,1;0,0
23/08/2026;18:05:00;1011,0;-30,2;0;31,7;63;122;1,1;0,0
23/08/2026;18:10:00;1011,1;-30,0;0;31,8;61;125;1,0;0,0
23/08/2026;18:15:00;1011,1;-30,2;0;31,9;60;132;1,0;0,0
23/08/2026;18:20:00;1011,1;-29,8;0;32,0;58;139;1,0;0,0
23/08/2026;18:25:00;1011,2;-29,8;0;32,0;57;145;0,8;0,0
23/08/2026;18:30:00;1011,2;-30,1;0;32,0;57;155;1,0;0,0
23/08/2026;18:35:00;1011,2;-29,8;0;32,0;57;165;0,7;0,0
23/08/2026;18:40:00;1011,3;-29,8;0;31,9;58;165;0,8;0,0
23/08/2026;18:45:00;1011,3;-30,1;0;31,9;58;169;0,8;0,0
23/08/2026;18:50:00;1011,3;-29,8;0;31,8;58;154;0,8;0,0
23/08/2026;18:55:00;1011,3;-29,9;0;31,8;58;167;0,7;0,0
23/08/2026;19:00:00;1011,3;-30,2;0;31,7;58;170;0,7;0,0
23/08/2026;19:05:00;1011,4;-29,9;0;31,6;59;175;0,9;0,0
23/08/2026;19:10:00;1011,4;-29,8;0;31,5;59;162;0,7;0,0
23/08/2026;19:15:00;1011,5;-30,1;0;31,4;60;174;0,6;0,0
23/08/2026;19:20:00;1011,5;-29,8;0;31,4;61;127;0,9;0,0
23/08/2026;19:25:00;1011,5;-29,7;0;31,3;61;122;1,0;0,0
23/08/2026;19:30:00;1011,5;-30,1;0;31,2;61;120;1,0;0,0
23/08/2026;19:35:00;1011,6;-29,8;0;31,2;62;125;1,0;0,0
23/08/2026;19:40:00;1011,7;-29,8;0;31,1;62;128;1,1;0,0
23/08/2026;19:45:00;1011,8;-30,1;0;31,0;63;144;1,0;0,0
23/08/2026;19:50:00;1012,0;-29,8;0;31,0;64;148;0,8;0,0
23/08/2026;19:55:00;1012,1;-29,8;0;30,9;64;154;0,9;0,0
23/08/2026;20:00:00;1012,1;-29,8;0;30,9;65;149;0,9;0,0
23/08/2026;20:05:00;1012,2;-29,8;0;30,8;66;149;0,7;0,0
23/08/2026;20:10:00;1012,3;-29,9;0;30,7;66;157;0,9;0,0
23/08/2026;20:15:00;1012,3;-29,9;0;30,7;67;166;1,0;0,0
23/08/2026;20:20:00;1012,4;-29,9;0;30,6;67;188;0,6;0,0
23/08/2026;20:25:00;1012,4;-29,9;0;30,6;67;191;0,6;0,0
23/08/2026;20:30:00;1012,4;-29,8;0;30,6;67;216;0,4;0,0
23/08/2026;20:35:00;1012,4;-29,7;0;30,6;67;259;0,4;0,0
23/08/2026;20:40:00;1012,4;-29,6;0;30,6;67;183;0,6;0,0
23/08/2026;20:45:00;1012,5;-29,0;0;30,5;67;170;0,9;0,0
23/08/2026;20:50:00;1012,5;-29,7;0;30,4;67;159;1,2;0,0
23/08/2026;20:55:00;1012,6;-30,0;0;30,3;67;173;0,8;0,0
23/08/2026;21:00:00;1012,7;-30,2;0;30,3;68;181;0,7;0,0
23/08/2026;21:05:00;1012,8;-30,4;0;30,2;68;162;0,6;0,0
23/08/2026;21:10:00;1012,8;-30,6;0;30,2;68;184;0,8;0,0
23/08/2026;21:15:00;1012,8;-30,6;0;30,2;68;182;0,8;0,0
23/08/2026;21:20:00;1012,9;-30,6;0;30,1;68;164;0,5;0,0
23/08/2026;21:25:00;1012,9;-30,7;0;30,1;69;206;0,4;0,0
23/08/2026;21:30:00;1012,8;-30,3;0;30,1;68;160;0,7;0,0
23/08/2026;21:35:00;1012,8;-30,7;0;30,0;69;173;0,7;0,0
23/08/2026;21:40:00;1012,8;-31,0;0;30,0;69;166;0,6;0,0
23/08/2026;21:45:00;1012,9;-31,3;0;29,9;69;150;0,6;0,0
23/08/2026;21:50:00;1012,9;-31,5;0;29,8;70;155;0,7;0,0
23/08/2026;21:55:00;1012,9;-31,7;0;29,8;70;179;0,7;0,0
23/08/2026;22:00:00;1012,9;-32,0;0;29,7;71;154;0,7;0,0
23/08/2026;22:05:00;1012,9;-32,2;0;29,7;70;158;0,8;0,0
23/08/2026;22:10:00;1012,9;-32,4;0;29,6;70;152;0,8;0,0
23/08/2026;22:15:00;1013,0;-32,6;0;29,6;71;143;0,7;0,0
23/08/2026;22:20:00;1013,0;-32,7;0;29,5;71;144;0,8;0,0
23/08/2026;22:25:00;1013,0;-32,9;0;29,5;71;172;0,6;0,0
23/08/2026;22:30:00;1013,0;-32,9;0;29,4;71;152;0,7;0,0
23/08/2026;22:35:00;1013,0;-33,1;0;29,4;71;136;0,8;0,0
23/08/2026;22:40:00;1013,0;-33,2;0;29,3;71;142;1,1;0,0
23/08/2026;22:45:00;1013,0;-33,3;0;29,3;70;139;1,1;0,0
23/08/2026;22:50:00;1013,0;-33,4;0;29,2;70;140;1,1;0,0
23/08/2026;22:55:00;1013,0;-33,5;0;29,2;71;131;1,3;0,0
